Flag for U.S.A. Weather past 2 weeks in Virginia Beach, Virginia, U.S.A.

Now
29 °F

Passing clouds.


Feels Like: 23 °F
Forecast: 26 / 42 °F
Wind: 6 mph from Northeast

Location: Virginia Beach - Oceana

Current Time: Feb 28, 2015 at 8:33:13 PM

Latest Report: Feb 28, 2015 at 7:56 PM


Visibility: 10 mi

Pressure: 30.77 "Hg

Humidity: 58%

Dew point: 16 °F

Location of Virginia BeachLocation

Historic Weather in Virginia Beach — Graph

°F

Virginia Beach temperature yesterday

Maximum temperature yesterday: 40 °F (at 11:56 AM)
Minimum temperature yesterday: 24 °F (at 6:56 AM)
Average temperature yesterday: 32 °F

Past Weeks' High & Low Weather Summary

 TemperatureHumidityPressure
High58 °F (Feb 22, 11:56 AM)100% (Feb 22, 8:56 AM)30.82 "Hg (Feb 22, 8:56 AM)
Low9 °F (Feb 21, 1:56 AM)21% (Feb 15, 4:56 PM)29.50 "Hg (Feb 14, 7:56 PM)
Average30 °F61%30.15 "Hg
* Reported Feb 13 6:56 PM — Feb 28 6:56 PM, Virginia Beach, Weather by CustomWeather, © 2015

Note: Actual official high and low records may vary slightly from our data, if they occured in-between our weather recording intervals... More about our weather records

Advertising

Virginia Beach weather history for previous 24 hours

 ConditionsComfort  
Time TempWeatherWind HumidityBarometerVisibility
6:56 PM
Sat, Feb 28
29 °FPassing clouds.6 mph58%30.77 "Hg10 mi
5:56 PM29 °FBroken clouds.7 mph58%30.76 "Hg10 mi
4:56 PM31 °FBroken clouds.9 mph57%30.76 "Hg10 mi
3:56 PM32 °FScattered clouds.9 mph54%30.76 "Hg10 mi
2:56 PM32 °FBroken clouds.13 mph56%30.78 "Hg10 mi
1:56 PM32 °FBroken clouds.10 mph54%30.78 "Hg10 mi
12:56 PM32 °FBroken clouds.9 mph52%30.80 "Hg10 mi
11:56 AM32 °FPartly sunny.14 mph50%30.81 "Hg10 mi
10:56 AM32 °FPartly sunny.15 mph52%30.82 "Hg10 mi
9:56 AM30 °FBroken clouds.12 mph56%30.82 "Hg10 mi
8:56 AM28 °FPartly sunny.13 mph58%30.81 "Hg10 mi
7:56 AM27 °FPartly sunny.13 mph58%30.79 "Hg10 mi
6:56 AM25 °FScattered clouds.10 mph60%30.77 "Hg10 mi
5:56 AM25 °FClear.10 mph63%30.73 "Hg10 mi
4:56 AM27 °FClear.10 mph58%30.71 "Hg10 mi
3:56 AM28 °FClear.8 mph61%30.68 "Hg10 mi
2:56 AM29 °FClear.15 mph61%30.66 "Hg10 mi
1:56 AM29 °FClear.14 mph69%30.64 "Hg8 mi
12:56 AM30 °FClear.10 mph69%30.63 "Hg8 mi
11:56 PM
Fri, Feb 27
30 °FClear.10 mph69%30.60 "Hg9 mi
10:56 PM30 °FClear.8 mph72%30.60 "Hg10 mi
9:56 PM30 °FClear.9 mph72%30.57 "Hg10 mi
8:56 PM31 °FClear.9 mph69%30.55 "Hg10 mi
Weather by CustomWeather, © 2015

See weather overviewHow to use our weather pages